Find BONUM-1

NORAD ID: 25546 Int'l Des: 1998-068 Owner: BONUM Country: RU operational
HEOCIRCULAR

Current View

Loading 3D Globe...

About BONUM-1

BONUM-1 (NORAD 25546) is a satellite launched Nov 22, 1998 by BONUM of RU. It operates in HEO, CIRCULAR orbit with a mass of 795.00 kg.

Upcoming Passes

Passes for default location (London). Set your location on the main map for personalized predictions.

Altitude History

Loading altitude history...

Two-Line Element Set

1 25546U 98068A 26194.47879874 -.00000208 00000-0 00000+0 0 9999
2 25546 10.9430 46.1693 0003696 22.2985 340.1281 0.99038476100806
Epoch: Jul 13, 2026 • Age: 18 hours

Current Status

Altitude 36145.5 km
Apogee / Perigee N/A
Velocity 3.06 km/s
Sub-Earth Point -10.89°S, 58.54°W
Launch Date Nov 22, 1998
Age 27.6 years
Type other

Technical Details

Classification Payload
Mass 795.00 kg
Dry Mass 600.00 kg
Total Mass 1425.00 kg
Length 7.50 m
Diameter 2.20 m
Span 7.50 m
Shape Cyl
Manufacturer HSES
Bus Type HS-376HP
Phase Status Renamed
Owner/State BONUM/RU

Most Searched